Location: Kuppenheim
(48.8299°N, 8.2568°E)
Time: 21:42:34
(UTC+00:00)

CZ-4C R/B - Visible Passes

Search period start: 15 October 2021 00:00
Search period end: 25 October 2021 00:00
Orbit: 600 x 1401 km, 63.4° (Epoch: 15 October)

Date Brightness Start Highest point End Pass type
(mag) Time Alt. Az. Time Alt. Az. Time Alt. Az.
15 Oct 4.7 00:40:30 19° NNE 00:40:30 19° NNE 00:42:45 10° NE visible
15 Oct 4.3 02:25:40 19° NNW 02:27:49 23° N 02:33:21 10° NE visible
15 Oct 4.1 04:12:03 10° NW 04:18:15 38° NNE 04:25:35 10° E visible
16 Oct 4.5 01:12:58 22° N 01:12:58 22° N 01:16:49 10° NE visible
16 Oct 4.4 02:58:08 15° NNW 03:02:13 26° NNE 03:08:26 10° ENE visible
16 Oct 3.6 04:45:25 10° NW 04:52:13 56° NE 05:00:16 10° ESE visible
17 Oct 5.1 00:00:15 13° NNE 00:00:15 13° NNE 00:01:03 10° NE visible
17 Oct 4.4 01:45:26 22° N 01:45:56 22° N 01:51:22 10° NE visible
17 Oct 4.1 03:30:37 11° NW 03:36:29 35° NNE 03:43:34 10° E visible
18 Oct 4.9 00:32:46 17° NNE 00:32:46 17° NNE 00:34:59 10° NE visible
18 Oct 4.3 02:17:56 21° NNW 02:20:22 25° NNE 02:26:23 10° ENE visible
18 Oct 3.7 04:03:50 10° NW 04:10:30 50° NE 04:18:23 10° ESE visible
19 Oct 4.6 01:05:18 21° NNE 01:05:18 21° NNE 01:09:25 10° NE visible
19 Oct 4.2 02:50:30 18° NNW 02:54:40 32° NNE 03:01:32 10° E visible
19 Oct 3.1 04:37:12 10° NW 04:44:16 77° NE 04:52:39 10° SE visible
19 Oct 5.2 23:52:42 12° NE 23:52:42 12° NE 23:53:13 10° NE visible
20 Oct 4.4 01:37:54 24° N 01:38:31 24° NNE 01:44:20 10° ENE visible
20 Oct 3.8 03:23:05 14° NNW 03:28:46 45° NE 03:36:28 10° ESE visible
20 Oct 3.1 05:10:39 10° NW 05:17:49 67° SW 05:26:10 10° SSE visible
21 Oct 5.0 00:25:21 16° NNE 00:25:21 16° NNE 00:27:30 10° NE visible
21 Oct 4.2 02:10:32 25° N 02:12:51 30° NNE 02:19:29 10° E visible
21 Oct 3.2 03:55:44 11° NW 04:02:36 69° NE 04:10:54 10° SE visible
22 Oct 4.7 00:58:04 22° NNE 00:58:04 22° NNE 01:02:18 10° ENE visible
22 Oct 3.9 02:43:16 24° NNW 02:47:00 41° NNE 02:54:30 10° ESE visible
22 Oct 3.0 04:29:02 10° NW 04:36:12 76° SW 04:44:37 10° SSE visible
23 Oct 4.3 01:30:52 28° NNE 01:31:02 28° NNE 01:37:25 10° ENE visible
23 Oct 3.3 03:16:05 22° NNW 03:20:55 61° NE 03:29:05 10° ESE visible
23 Oct 3.4 05:02:39 10° NW 05:09:34 45° WSW 05:17:27 10° S visible
24 Oct 5.1 00:18:34 15° NE 00:18:34 15° NE 00:20:17 10° NE visible
24 Oct 3.9 02:03:48 34° N 02:05:14 37° NNE 02:12:31 10° E visible
24 Oct 2.9 03:49:00 19° NW 03:54:34 86° SW 04:03:00 10° SE visible
